| time (UTC) | temp F | wind direction | speed MPH | gust MPH | rain 1hr in | rain 24hr in | rain mn in | humidity % | barometer mb |
| 20260506090635 | 69 | 44 | 0.0 | 0.0 | 0.00 | 0.04 | 0.00 | 93 | 994.9 |
| 20260506085635 | 69 | 44 | 0.0 | 0.0 | 0.00 | 0.04 | 0.00 | 93 | 994.7 |
| 20260506084636 | 69 | 44 | 0.0 | 0.0 | 0.00 | 0.04 | 0.00 | 93 | 994.6 |
| 20260506083635 | 69 | 44 | 0.0 | 0.0 | 0.00 | 0.04 | 0.00 | 93 | 994.5 |
| 20260506082635 | 69 | 44 | 0.0 | 0.0 | 0.00 | 0.04 | 0.00 | 93 | 994.4 |
| 20260506081635 | 69 | 44 | 0.0 | 0.0 | 0.00 | 0.04 | 0.00 | 92 | 994.3 |
| 20260506080635 | 69 | 44 | 0.0 | 0.0 | 0.00 | 0.04 | 0.00 | 92 | 994.2 |
| 20260506072635 | 71 | 44 | 0.0 | 0.0 | 0.00 | 0.04 | 0.00 | 92 | 994.0 |
| 20260506071635 | 71 | 44 | 0.0 | 0.0 | 0.00 | 0.04 | 0.00 | 92 | 994.0 |
| 20260506070636 | 71 | 44 | 0.0 | 0.0 | 0.00 | 0.04 | 0.00 | 92 | 993.8 |
| 20260506061636 | 73 | 44 | 0.0 | 0.0 | 0.03 | 0.04 | 0.04 | 89 | 993.5 |
| 20260506060636 | 73 | 44 | 0.0 | 2.0 | 0.03 | 0.04 | 0.04 | 87 | 993.5 |
| 20260506050636 | 79 | 355 | 0.0 | 4.0 | 0.00 | 0.01 | 0.01 | 72 | 993.3 |
| 20260506044636 | 78 | 321 | 1.0 | 6.0 | 0.00 | 0.01 | 0.01 | 75 | 993.3 |
| 20260506043636 | 78 | 310 | 1.0 | 4.0 | 0.00 | 0.01 | 0.01 | 74 | 993.4 |
| 20260506042636 | 77 | 336 | 1.0 | 6.0 | 0.00 | 0.01 | 0.01 | 74 | 993.6 |
| 20260506041636 | 78 | 307 | 0.0 | 4.0 | 0.00 | 0.01 | 0.01 | 75 | 993.5 |
| 20260506040636 | 77 | 0 | 0.0 | 2.0 | 0.00 | 0.01 | 0.01 | 77 | 993.7 |
| 20260506035636 | 77 | 0 | 0.0 | 0.0 | 0.00 | 0.01 | 0.01 | 78 | 993.9 |
| 20260506034636 | 76 | 0 | 0.0 | 4.0 | 0.00 | 0.01 | 0.01 | 79 | 994.0 |
| 20260506033636 | 75 | 5 | 0.0 | 1.0 | 0.00 | 0.01 | 0.01 | 80 | 994.0 |
| 20260506032636 | 75 | 325 | 0.0 | 0.0 | 0.01 | 0.01 | 0.01 | 82 | 994.0 |
| 20260506030636 | 76 | 325 | 2.0 | 7.0 | 0.01 | 0.01 | 0.01 | 80 | 994.3 |
| 20260506025636 | 76 | 326 | 0.0 | 5.0 | 0.01 | 0.01 | 0.01 | 78 | 994.3 |
| 20260506024636 | 76 | 0 | 1.0 | 5.0 | 0.01 | 0.01 | 0.01 | 80 | 994.5 |
| 20260506023636 | 75 | 307 | 0.0 | 1.0 | 0.01 | 0.01 | 0.01 | 84 | 994.6 |
| 20260506022636 | 75 | 309 | 2.0 | 9.0 | 0.00 | 0.00 | 0.00 | 80 | 994.6 |
| 20260506021636 | 76 | 292 | 2.0 | 2.0 | 0.00 | 0.00 | 0.00 | 79 | 994.6 |
| 20260506020636 | 77 | 287 | 1.0 | 6.0 | 0.00 | 0.00 | 0.00 | 76 | 994.6 |
| 20260506015636 | 78 | 13 | 2.0 | 5.0 | 0.00 | 0.00 | 0.00 | 73 | 994.6 |
| 20260506014636 | 77 | 351 | 2.0 | 5.0 | 0.00 | 0.00 | 0.00 | 73 | 994.8 |
| 20260506013636 | 78 | 341 | 3.0 | 8.0 | 0.00 | 0.00 | 0.00 | 73 | 995.0 |
| 20260506012637 | 78 | 323 | 1.0 | 7.0 | 0.00 | 0.00 | 0.00 | 72 | 995.1 |
| 20260506011636 | 77 | 340 | 2.0 | 9.0 | 0.00 | 0.00 | 0.00 | 73 | 995.1 |
| 20260506010636 | 77 | 24 | 2.0 | 5.0 | 0.00 | 0.00 | 0.00 | 73 | 995.3 |
| 20260506005636 | 77 | 355 | 3.0 | 7.0 | 0.00 | 0.00 | 0.00 | 73 | 995.4 |
| 20260506004636 | 78 | 29 | 1.0 | 7.0 | 0.00 | 0.00 | 0.00 | 72 | 995.6 |
| 20260506003636 | 78 | 346 | 2.0 | 5.0 | 0.00 | 0.00 | 0.00 | 72 | 995.7 |
| 20260506002636 | 77 | 323 | 1.0 | 5.0 | 0.00 | 0.00 | 0.00 | 74 | 995.9 |
| 20260506001636 | 77 | 252 | 2.0 | 5.0 | 0.00 | 0.00 | 0.00 | 74 | 995.9 |
| 20260506000636 | 77 | 36 | 1.0 | 4.0 | 0.00 | 0.00 | 0.00 | 74 | 995.8 |
| 20260505235636 | 77 | 323 | 1.0 | 7.0 | 0.00 | 0.00 | 0.00 | 74 | 996.0 |
| 20260505234636 | 77 | 11 | 1.0 | 2.0 | 0.00 | 0.00 | 0.00 | 75 | 995.8 |
| 20260505233637 | 76 | 19 | 2.0 | 5.0 | 0.00 | 0.00 | 0.00 | 75 | 995.9 |
| 20260505232636 | 76 | 350 | 0.0 | 7.0 | 0.00 | 0.00 | 0.00 | 75 | 996.0 |
| 20260505231636 | 75 | 52 | 0.0 | 0.0 | 0.00 | 0.00 | 0.00 | 77 | 995.9 |
| 20260505230636 | 75 | 39 | 0.0 | 1.0 | 0.00 | 0.00 | 0.00 | 78 | 995.8 |
| 20260505225636 | 74 | 44 | 0.0 | 1.0 | 0.00 | 0.00 | 0.00 | 80 | 995.8 |
| 20260505224636 | 73 | 313 | 0.0 | 0.0 | 0.00 | 0.00 | 0.00 | 82 | 995.6 |
| 20260505223636 | 72 | 329 | 0.0 | 2.0 | 0.00 | 0.00 | 0.00 | 82 | 995.6 |
| 20260505222636 | 72 | 87 | 0.0 | 2.0 | 0.00 | 0.00 | 0.00 | 84 | 995.5 |
| 20260505221637 | 71 | 75 | 0.0 | 0.0 | 0.00 | 0.00 | 0.00 | 86 | 995.6 |
| 20260505220637 | 70 | 75 | 0.0 | 0.0 | 0.00 | 0.00 | 0.00 | 88 | 995.6 |
| 20260505215637 | 69 | 90 | 0.0 | 0.0 | 0.00 | 0.00 | 0.00 | 90 | 995.6 |
| 20260505214637 | 68 | 76 | 0.0 | 0.0 | 0.00 | 0.00 | 0.00 | 93 | 995.6 |
| 20260505213637 | 68 | 37 | 0.0 | 0.0 | 0.00 | 0.00 | 0.00 | 94 | 995.5 |
| 20260505212637 | 67 | 37 | 0.0 | 0.0 | 0.00 | 0.00 | 0.00 | 93 | 995.4 |
| 20260505211637 | 67 | 37 | 0.0 | 0.0 | 0.00 | 0.00 | 0.00 | 93 | 995.3 |
| 20260505210637 | 67 | 37 | 0.0 | 0.0 | 0.00 | 0.00 | 0.00 | 94 | 995.2 |
| 20260505205637 | 67 | 37 | 0.0 | 2.0 | 0.00 | 0.00 | 0.00 | 94 | 995.1 |
| 20260505204638 | 66 | 36 | 1.0 | 4.0 | 0.00 | 0.00 | 0.00 | 95 | 995.0 |
| 20260505203637 | 65 | 312 | 0.0 | 0.0 | 0.00 | 0.00 | 0.00 | 95 | 994.9 |
| 20260505202637 | 65 | 312 | 0.0 | 0.0 | 0.00 | 0.00 | 0.00 | 94 | 994.9 |
| 20260505201637 | 65 | 312 | 0.0 | 0.0 | 0.00 | 0.00 | 0.00 | 94 | 994.7 |
| 20260505200637 | 65 | 312 | 0.0 | 0.0 | 0.00 | 0.00 | 0.00 | 94 | 994.7 |
| 20260505195640 | 65 | 312 | 0.0 | 0.0 | 0.00 | 0.00 | 0.00 | 94 | 994.6 |
| 20260505194637 | 65 | 312 | 0.0 | 0.0 | 0.00 | 0.00 | 0.00 | 94 | 994.6 |
| 20260505193637 | 65 | 312 | 0.0 | 0.0 | 0.00 | 0.00 | 0.00 | 94 | 994.5 |
| 20260505192637 | 65 | 312 | 0.0 | 0.0 | 0.00 | 0.00 | 0.00 | 93 | 994.3 |
| 20260505191637 | 65 | 312 | 0.0 | 0.0 | 0.00 | 0.00 | 0.00 | 93 | 994.2 |
| 20260505190637 | 66 | 312 | 0.0 | 0.0 | 0.00 | 0.00 | 0.00 | 94 | 994.1 |
| 20260505185637 | 66 | 312 | 0.0 | 0.0 | 0.00 | 0.00 | 0.00 | 93 | 994.0 |
| 20260505184637 | 66 | 312 | 0.0 | 0.0 | 0.00 | 0.00 | 0.00 | 93 | 994.0 |
| 20260505183637 | 67 | 312 | 0.0 | 0.0 | 0.00 | 0.00 | 0.00 | 93 | 994.0 |
| 20260505182638 | 67 | 312 | 0.0 | 1.0 | 0.00 | 0.00 | 0.00 | 93 | 994.0 |
| 20260505181637 | 67 | 309 | 0.0 | 0.0 | 0.00 | 0.00 | 0.00 | 94 | 994.0 |
| 20260505180637 | 67 | 309 | 0.0 | 0.0 | 0.00 | 0.00 | 0.00 | 94 | 993.9 |
| 20260505175637 | 67 | 309 | 0.0 | 0.0 | 0.00 | 0.00 | 0.00 | 94 | 994.0 |
| 20260505174637 | 67 | 309 | 0.0 | 0.0 | 0.00 | 0.00 | 0.00 | 94 | 994.1 |
| 20260505173637 | 67 | 309 | 0.0 | 0.0 | 0.00 | 0.00 | 0.00 | 94 | 994.1 |
| 20260505172637 | 67 | 309 | 0.0 | 0.0 | 0.00 | 0.00 | 0.00 | 94 | 994.2 |
| 20260505171637 | 66 | 309 | 0.0 | 0.0 | 0.00 | 0.00 | 0.00 | 94 | 994.3 |
| 20260505170637 | 66 | 309 | 0.0 | 0.0 | 0.00 | 0.00 | 0.00 | 93 | 994.3 |
| 20260505165637 | 66 | 309 | 0.0 | 0.0 | 0.00 | 0.01 | 0.00 | 93 | 994.2 |
| 20260505164637 | 66 | 309 | 0.0 | 0.0 | 0.00 | 0.01 | 0.00 | 93 | 994.3 |
| 20260505163637 | 66 | 307 | 0.0 | 0.0 | 0.00 | 0.01 | 0.00 | 93 | 994.3 |
| 20260505162641 | 67 | 307 | 0.0 | 0.0 | 0.00 | 0.01 | 0.00 | 93 | 994.4 |
| 20260505161637 | 67 | 307 | 0.0 | 0.0 | 0.00 | 0.01 | 0.00 | 93 | 994.5 |
| 20260505160637 | 67 | 307 | 0.0 | 0.0 | 0.00 | 0.01 | 0.00 | 92 | 994.6 |
| 20260505152637 | 69 | 307 | 0.0 | 0.0 | 0.00 | 0.01 | 0.00 | 92 | 994.9 |
| 20260505151637 | 69 | 307 | 0.0 | 0.0 | 0.00 | 0.01 | 0.00 | 92 | 995.0 |
| 20260505150637 | 69 | 307 | 0.0 | 0.0 | 0.00 | 0.01 | 0.00 | 92 | 995.1 |
| 20260505140637 | 69 | 307 | 0.0 | 0.0 | 0.00 | 0.01 | 0.00 | 92 | 995.4 |
| 20260505123638 | 69 | 307 | 0.0 | 0.0 | 0.00 | 0.01 | 0.00 | 91 | 996.1 |
| 20260505122638 | 69 | 307 | 0.0 | 0.0 | 0.00 | 0.01 | 0.00 | 91 | 996.0 |
| 20260505121638 | 69 | 307 | 0.0 | 0.0 | 0.00 | 0.01 | 0.00 | 91 | 996.2 |
| 20260505115638 | 69 | 307 | 0.0 | 0.0 | 0.00 | 0.01 | 0.00 | 90 | 996.3 |
| 20260505114638 | 69 | 307 | 0.0 | 0.0 | 0.00 | 0.01 | 0.00 | 91 | 996.2 |
| 20260505112638 | 68 | 307 | 0.0 | 0.0 | 0.00 | 0.01 | 0.00 | 90 | 996.2 |
| 20260505111638 | 68 | 307 | 0.0 | 0.0 | 0.00 | 0.01 | 0.00 | 90 | 996.3 |
| 20260505110639 | 68 | 307 | 0.0 | 0.0 | 0.00 | 0.01 | 0.00 | 90 | 996.4 |
| 20260505095638 | 67 | 307 | 0.0 | 0.0 | 0.00 | 0.01 | 0.00 | 88 | 996.0 |
| 20260505094638 | 68 | 307 | 0.0 | 0.0 | 0.00 | 0.01 | 0.00 | 88 | 995.9 |
| 20260505092638 | 68 | 307 | 0.0 | 0.0 | 0.00 | 0.01 | 0.00 | 87 | 995.7 |
| 20260505091638 | 68 | 307 | 0.0 | 0.0 | 0.00 | 0.01 | 0.00 | 86 | 995.6 |